• Join FlightAware (Why Join?)
  • Login
  • US Flag 
12:42AM EST


 

Airport Tracker/Info


-or-


 

Live Flight TrackerFlight Track Log ✈ N302SJ ✈ 18-Aug-2013 ✈ KSUT - KLYH

Flight Track Log - Related Links

Times and Time Zones

All times are in EDT time to prevent confusion due to time zone crossing. See the N302SJ flight status page for this flight to view local times or setup timezone preferences in your user account.

Time Position Orientation Groundspeed Altitude Reporting Facility
EDT Latitude Longitude Course Direction KTS MPH feet Rate Location/Type
12:11PM 34.0189 -78.0722 347° North 224 258 8,100  Level Washington Center
12:12PM 34.0831 -78.0917 346° North 229 264 10,300 2,231 Climbing Washington Center
12:13PM 34.1472 -78.1139 344° North 236 272 12,600 2,085 Climbing Washington Center
12:14PM 34.2075 -78.1358 343° North 241 277 14,400 1,932 Climbing Washington Center
12:15PM 34.2736 -78.1553 346° North 241 277 16,400 1,686 Climbing Washington Center
12:16PM 34.3604 -78.2131 346° North  Level FlightAware Approximate
12:16PM 34.3419 -78.1803 343° North 246 283 17,800  Level Washington Center
12:17PM 34.4208 -78.2053 345° North 263 303 18,100 885 Climbing Washington Center
12:18PM 34.5058 -78.2333 345° North 292 336 19,600 1,513 Climbing Washington Center
12:19PM 34.5867 -78.2586 346° North 297 342 21,100 1,282 Climbing Washington Center
12:20PM 34.6694 -78.2864 345° North 297 342 22,100 496 Climbing Washington Center
12:21PM 34.7583 -78.3197 343° North 308 354 22,100  Level Washington Center
12:22PM 34.8558 -78.3458 348° North 332 382 22,100  Level Washington Center
12:23PM 34.9511 -78.3794 344° North 347 399 22,100  Level Washington Center
12:24PM 35.0503 -78.4108 345° North 359 413 22,100 -51 Level Washington Center
12:25PM 35.1475 -78.4472 343° North 359 413 22,000 -50 Descending Washington Center
12:26PM 35.2469 -78.4786 346° North 359 413 22,000  Level Washington Center
12:27PM 35.3483 -78.5128 345° North 359 413 22,000 51 Level Washington Center
12:28PM 35.4561 -78.5500 344° North 366 421 22,100  Climbing Washington Center
12:29PM 35.5492 -78.5789 346° North 372 428 22,000 -49 Descending Washington Center
12:30PM 35.6589 -78.6189 344° North 372 428 22,000  Level Washington Center
12:31PM 35.7539 -78.6531 344° North 367 422 22,000 50 Level Washington Center
12:32PM 35.8553 -78.6853 346° North 367 422 22,100  Climbing Washington Center
12:33PM 35.9525 -78.7225 343° North 367 422 22,000 -50 Descending Washington Center
12:34PM 36.0517 -78.7547 345° North 367 422 22,000  Level Washington Center
12:35PM 36.1489 -78.7894 344° North 367 422 22,000 -303 Level Washington Center
12:36PM 36.2522 -78.8244 345° North 362 417 21,400 -590 Descending Washington Center
12:37PM 36.3556 -78.8622 344° North 375 432 20,800 -1,008 Descending Washington Center
12:38PM 36.4528 -78.8947 345° North 375 432 19,400 -1,373 Descending Washington Center
12:39PM 36.5478 -78.9247 346° North 363 418 18,100 -1,200 Descending Washington Center
12:40PM 36.6386 -78.9597 343° North 347 399 17,000 -1,240 Descending Washington Center
12:41PM 36.7131 -78.9836 346° North 332 382 15,600 -1,770 Descending Washington Center
12:42PM 36.8017 -79.0211 341° North 312 359 13,400 -2,100 Descending Washington Center
12:43PM 36.8711 -79.0736 329° Northwest 298 343 11,400 -2,100 Descending Washington Center
12:44PM 36.9383 -79.1339 324° Northwest 292 336 9,200 -2,168 Descending Washington Center
12:45PM 37.0033 -79.1914 325° Northwest 292 336 7,100 -2,186 Descending Washington Center
12:46PM 37.0561 -79.2433 322° Northwest 280 322 4,900 -2,000 Descending Washington Center
12:47PM 37.1083 -79.3031 318° Northwest 267 307 3,100 -942 Descending Washington Center
12:48PM 37.1667 -79.3111 354° North 221 254 3,000 -50 Descending Washington Center
12:49PM 37.2092 -79.2792 31° Northeast 154 177 3,000 -198 Level Washington Center
12:50PM 37.2453 -79.2575 26° Northeast 148 170 2,600 -393 Descending Washington Center
12:52PM 37.3167 -79.2000 338° Northwest  Level FlightAware Approximate
12:59PM 37.3254 -79.2012 338° Northwest  Level Estimated
01:00PM 37.3254 -79.2012 338° Northwest  Level Estimated
01:01PM 37.3254 -79.2012 338° Northwest  Level Estimated